Location: Anuling
(14.1239°N, 120.8922°E)
Time: 06:08:28
(UTC+00:00)

SL-4 R/B - Pass Details

Date: 14 January 2026
Orbit: 384 x 519 km, 51.6° (Epoch: 7 February)

Event Time Altitude Azimuth Distance (km) Brightness Sun altitude
Rises 11:21:47 0° 328° (NNW) 2,566 5.6 -22.6°
Reaches altitude 10° 11:24:02 10° 332° (NNW) 1,662 4.6 -23.1°
Enters shadow 11:24:59 17° 335° (NNW) 1,289 3.9 -23.3°
